Simultaneous Nadir Overpasses (SNOs) Predictions

Prediction of SNOs between GOES-16 and NOAA-21 Satellite Orbit:

Table of predicted SNOs for the next 14.0 days since TLE Epoch: 7/2/2023
Index Date Time (GOES-16) GOES-16 Lat,Lon NOAA-21 Lat,Lon Distance(km) Time Diff (sec)
1 07/02/2023 06:09:40 -0.02, -75.20 -0.74, -71.92 372.98 80
2 07/03/2023 18:31:36 0.03, -75.20 -0.41, -77.24 231.36 80
3 07/04/2023 18:15:31 0.03, -75.21 0.59, -72.70 285.58 80
4 07/06/2023 06:37:18 -0.04, -75.22 0.55, -77.98 313.63 80
5 07/07/2023 06:15:53 -0.04, -75.23 -0.45, -73.44 203.82 80
6 07/08/2023 18:37:48 0.04, -75.24 -0.75, -78.74 399.00 80
7 07/09/2023 18:21:43 0.04, -75.25 0.26, -74.21 119.08 80
8 07/11/2023 06:43:30 -0.04, -75.28 0.89, -79.48 478.46 80
9 07/12/2023 06:22:04 -0.05, -75.30 -0.12, -74.95 39.76 80
10 07/14/2023 18:25:14 0.06, -75.34 -0.05, -75.71 43.81 80
11 07/15/2023 18:09:10 0.06, -75.36 1.01, -71.19 474.91 80
